Location: ??????
(56.0120°N, 39.1740°E)
Time: 20:24:26
(UTC+00:00)

Cosmos 2263 - Pass Details

Date: 14 April 2026
Orbit: 830 x 863 km, 70.9° (Epoch: 14 May)

Event Time Altitude Azimuth Distance (km) Brightness Sun altitude
Rises 18:54:44 0° 324° (NW) 3,390 9.1 -17.5°
Reaches altitude 10° 18:57:12 10° 328° (NNW) 2,456 7.9 -17.7°
Maximum altitude 19:02:48 64° 50° (NE) 928 4.4 -18.2°
Enters shadow 19:05:34 30° 122° (ESE) 1,461 4.9 -18.4°
